Home > Weather > Constanța > Past weeks

Flag for Romania Past Weather in Constanța, Romania — Yesterday and Last 2 Weeks

Now
83 °F

Passing clouds.


Feels Like: 83 °F
Forecast: 67 / 87 °F
Wind: 2 mph from Southeast

Location: Constanta

Current Time: Jul 26, 2016 at 3:26:27 PM

Latest Report: Jul 26, 2016 at 3:00 PM


Visibility: 6 mi

Pressure: 29.96 "Hg

Humidity: 46%

Dew Point: 60 °F

Location of ConstanțaLocation

Past Weather in Constanța — Graph

°F

Constanța Temperature Yesterday

Maximum temperature yesterday: 84 °F (at 1:00 PM)
Minimum temperature yesterday: 69 °F (at 6:00 AM)
Average temperature yesterday: 78 °F

High & Low Weather Summary for the Past Weeks

 TemperatureHumidityPressure
High88 °F (Jul 22, 3:00 PM)95% (Jul 14, 6:00 AM)30.08 "Hg (Jul 14, 6:00 AM)
Low64 °F (Jul 21, 7:00 AM)26% (Jul 22, 1:00 PM)29.74 "Hg (Jul 17, 7:00 PM)
Average76 °F65%29.92 "Hg
* Reported Jul 11 2:00 PM — Jul 26 2:00 PM, Constanța, Weather by CustomWeather, © 2016

Note: Actual official high and low records may vary slightly from our data, if they occured in-between our weather recording intervals... More about our weather records

Advertising

Constanța Weather History for the Previous 24 Hours

Scroll right to see more
 ConditionsComfort  
Time TempWeatherWind HumidityBarometerVisibility
2:00 PM
Tue, Jul 26
84 °FPassing clouds.1 mph53%29.97 "Hg6 mi
1:00 PM84 °FSunny.1 mph58%29.98 "Hg6 mi
12:00 PM81 °FPassing clouds.1 mph65%29.98 "Hg6 mi
11:00 AM83 °FSunny.1 mph60%29.98 "Hg6 mi
10:00 AM79 °FSunny.2 mph72%29.98 "Hg6 mi
9:00 AM78 °FSunny.1 mph71%29.98 "Hg6 mi
8:00 AM73 °FSunny.No wind74%29.97 "Hg6 mi
7:00 AM68 °FSunny.No wind83%29.96 "Hg6 mi
6:00 AM68 °FSunny.No wind85%29.96 "Hg6 mi
5:00 AM68 °FClear.No wind86%29.96 "Hg6 mi
4:00 AM70 °FClear.No wind90%29.96 "Hg6 mi
3:00 AM71 °FClear.No wind85%29.96 "Hg6 mi
2:00 AM72 °FClear.1 mph80%29.96 "Hg6 mi
1:00 AM73 °FClear.1 mph81%29.96 "Hg6 mi
12:00 AM75 °FClear.No wind73%29.96 "Hg6 mi
11:00 PM
Mon, Jul 25
76 °FClear.No wind70%29.96 "Hg6 mi
10:00 PM77 °FClear.1 mph69%29.96 "Hg6 mi
9:00 PM78 °FClear.2 mph64%29.95 "Hg6 mi
8:00 PM80 °FSunny.2 mph63%29.96 "Hg6 mi
7:00 PM81 °FSunny.2 mph62%29.95 "Hg6 mi
6:00 PM81 °FSunny.3 mph65%29.96 "Hg6 mi
5:00 PM82 °FSunny.2 mph65%29.97 "Hg6 mi
4:00 PM84 °FPassing clouds.No wind61%29.98 "Hg6 mi
3:00 PM82 °FPassing clouds.2 mph63%29.97 "Hg6 mi
Weather by CustomWeather, © 2016

See weather overviewHow to use our weather pages